QPF
0.05 0.00 0.00 0.00 0.00 0.00 0.00 0.00 0.01 0.01 0.02 0.02 0.02 0.02 0.02 0.01 0.01 0.02 0.01 0.00 0.00 0.00 0.00 0.00 0.00 0.00 0.00 0.00 0.00 0.00 0.00 0.00 0.00 0.00 0.00 0.00 0.00 0.00 0.00 0.00 0.00 0.00 0.00
0.04 0.00 0.00 0.00 0.00 0.00 0.00 0.00 0.00 0.01 0.03 0.01 0.02 0.04 0.04 0.03 0.02 0.02 0.01 0.00 0.00 0.00 0.00 0.00 0.00 0.00 0.00 0.00 0.00 0.00 0.00 0.00 0.00 0.00 0.00 0.00 0.00 0.00 0.00 0.00 0.00 0.00 0.00
0.06 0.00 0.00 0.00 0.00 0.00 0.00 0.00 0.00 0.01 0.01 0.00 0.00 0.01 0.03 0.04 0.04 0.02 0.02 0.01 0.00 0.00 0.00 0.00 0.00 0.00 0.00 0.00 0.00 0.00 0.00 0.00 0.00 0.00 0.00 0.00 0.00 0.00 0.00 0.00 0.00 0.00 0.00
0.03 0.00 0.00 0.00 0.00 0.00 0.00 0.00 0.00 0.00 0.00 0.00 0.01 0.00 0.01 0.02 0.06 0.03 0.02 0.03 0.01 0.00 0.00 0.00 0.00 0.00 0.00 0.00 0.00 0.00 0.00 0.00 0.00 0.00 0.00 0.00 0.00 0.00 0.00 0.00 0.00 0.00 0.00
0.00 0.00 0.00 0.00 0.00 0.00 0.00 0.00 0.00 0.00 0.00 0.00 0.00 0.01 0.00 0.00 0.00 0.03 0.02 0.03 0.03 0.01 0.01 0.00 0.00 0.00 0.00 0.00 0.00 0.00 0.00 0.00 0.00 0.00 0.00 0.00 0.00 0.00 0.00 0.00 0.00 0.00 0.00
0.00 0.00 0.00 0.00 0.00 0.00 0.00 0.00 0.00 0.00 0.00 0.00 0.00 0.00 0.00 0.00 0.00 0.00 0.01 0.01 0.03 0.01 0.00 0.00 0.00 0.00 0.00 0.00 0.00 0.00 0.00 0.00 0.00 0.00 0.00 0.00 0.00 0.00 0.00 0.00 0.00 0.00 0.00
0.00 0.00 0.00 0.00 0.00 0.00 0.00 0.00 0.00 0.00 0.00 0.00 0.00 0.00 0.00 0.00 0.00 0.00 0.00 0.00 0.00 0.00 0.00 0.00 0.00 0.00 0.00 0.00 0.00 0.00 0.00 0.00 0.00 0.00 0.00 0.00 0.00 0.00 0.00 0.00 0.00 0.00 0.00
0.00 0.00 0.00 0.00 0.00 0.00 0.00 0.00 0.00 0.00 0.00 0.00 0.00 0.00 0.00 0.00 0.00 0.00 0.00 0.00 0.00 0.00 0.00 0.00 0.00 0.00 0.00 0.00 0.00 0.00 0.00 0.00 0.00 0.00 0.00 0.00 0.00 0.00 0.00 0.00 0.00 0.00 0.00
0.00 0.00 0.00 0.00 0.00 0.00 0.00 0.00 0.00 0.00 0.00 0.00 0.00 0.00 0.00 0.00 0.00 0.00 0.00 0.00 0.00 0.00 0.00 0.00 0.00 0.00 0.00 0.00 0.00 0.00 0.00 0.00 0.00 0.00 0.00 0.00 0.00 0.00 0.00 0.00 0.00 0.00 0.00
0.00 0.00 0.00 0.00 0.00 0.00 0.00 0.00 0.00 0.00 0.00 0.00 0.00 0.00 0.00 0.00 0.00 0.00 0.00 0.00 0.00 0.00 0.00 0.00 0.00 0.00 0.00 0.00 0.00 0.00 0.00 0.00 0.00 0.00 0.00 0.00 0.00 0.00 0.00 0.00 0.00 0.00 0.00
0.00 0.00 0.00 0.00 0.00 0.00 0.00 0.00 0.01 0.00 0.00 0.00 0.00 0.00 0.00 0.00 0.00 0.00 0.00 0.00 0.00 0.00 0.00 0.00 0.00 0.00 0.00 0.00 0.00 0.00 0.00 0.00 0.00 0.00 0.00 0.00 0.00 0.00 0.00 0.00 0.00 0.00 0.00
0.00 0.00 0.00 0.00 0.00 0.00 0.00 0.00 0.00 0.00 0.00 0.00 0.00 0.00 0.00 0.01 0.03 0.00 0.01 0.00 0.00 0.00 0.00 0.00 0.00 0.00 0.00 0.00 0.00 0.00 0.00 0.00 0.00 0.00 0.00 0.00 0.00 0.00 0.00 0.00 0.00 0.00 0.00
0.00 0.00 0.00 0.00 0.00 0.00 0.00 0.00 0.00 0.00 0.00 0.00 0.00 0.00 0.00 0.00 0.00 0.00 0.01 0.02 0.03 0.01 0.00 0.00 0.00 0.00 0.00 0.00 0.00 0.00 0.00 0.00 0.00 0.00 0.00 0.00 0.00 0.00 0.00 0.00 0.00 0.00 0.00
0.00 0.00 0.00 0.00 0.00 0.00 0.00 0.00 0.00 0.00 0.00 0.00 0.00 0.00 0.01 0.02 0.02 0.01 0.00 0.01 0.01 0.01 0.02 0.01 0.00 0.00 0.00 0.00 0.00 0.00 0.00 0.00 0.00 0.00 0.01 0.01 0.00 0.00 0.00 0.00 0.00 0.00 0.00
0.00 0.00 0.00 0.00 0.00 0.00 0.00 0.00 0.00 0.00 0.00 0.00 0.00 0.00 0.00 0.00 0.00 0.01 0.02 0.02 0.02 0.01 0.01 0.01 0.01 0.00 0.00 0.00 0.00 0.00 0.00 0.00 0.00 0.00 0.02 0.04 0.00 0.00 0.00 0.00 0.00 0.00 0.00
0.00 0.00 0.00 0.00 0.00 0.00 0.00 0.00 0.00 0.00 0.00 0.00 0.00 0.00 0.00 0.00 0.00 0.00 0.00 0.00 0.01 0.01 0.02 0.02 0.02 0.02 0.01 0.00 0.00 0.00 0.00 0.00 0.00 0.00 0.01 0.08 0.01 0.00 0.00 0.00 0.00 0.00 0.00
0.00 0.00 0.00 0.00 0.00 0.00 0.00 0.00 0.00 0.00 0.00 0.00 0.00 0.00 0.00 0.00 0.00 0.00 0.00 0.00 0.00 0.00 0.01 0.02 0.02 0.01 0.02 0.03 0.03 0.01 0.00 0.00 0.00 0.00 0.00 0.00 0.04 0.03 0.04 0.01 0.00 0.01 0.00
0.00 0.00 0.00 0.00 0.00 0.00 0.00 0.00 0.00 0.00 0.00 0.00 0.00 0.00 0.00 0.00 0.00 0.00 0.00 0.00 0.00 0.00 0.00 0.00 0.00 0.00 0.01 0.01 0.01 0.00 0.00 0.00 0.00 0.00 0.00 0.00 0.00 0.07 0.14 0.15 0.03 0.00 0.00
0.00 0.00 0.00 0.00 0.00 0.00 0.00 0.00 0.00 0.00 0.00 0.00 0.00 0.00 0.00 0.00 0.00 0.00 0.00 0.00 0.00 0.00 0.00 0.00 0.00 0.00 0.00 0.00 0.00 0.00 0.00 0.00 0.00 0.00 0.00 0.00 0.00 0.00 0.01 0.18 0.11 0.03 0.00
0.00 0.00 0.00 0.00 0.00 0.00 0.00 0.00 0.00 0.00 0.00 0.00 0.00 0.00 0.00 0.00 0.00 0.00 0.00 0.00 0.00 0.00 0.00 0.00 0.00 0.00 0.00 0.00 0.00 0.00 0.00 0.00 0.00 0.00 0.00 0.00 0.00 0.00 0.00 0.03 0.19 0.07 0.12
0.00 0.00 0.00 0.00 0.00 0.00 0.00 0.00 0.00 0.00 0.00 0.00 0.00 0.00 0.00 0.00 0.00 0.00 0.00 0.00 0.00 0.00 0.00 0.00 0.00 0.00 0.00 0.00 0.00 0.00 0.00 0.00 0.01 0.02 0.01 0.01 0.02 0.00 0.00 0.01 0.03 0.06 0.17
0.00 0.00 0.00 0.00 0.00 0.00 0.00 0.00 0.00 0.00 0.00 0.00 0.00 0.00 0.00 0.00 0.00 0.00 0.00 0.00 0.00 0.00 0.00 0.00 0.00 0.00 0.00 0.00 0.00 0.00 0.00 0.00 0.01 0.03 0.04 0.10 0.07 0.04 0.01 0.02 0.04 0.02 0.04
0.00 0.00 0.00 0.00 0.00 0.00 0.00 0.00 0.00 0.00 0.00 0.00 0.00 0.00 0.00 0.00 0.00 0.00 0.00 0.00 0.00 0.00 0.00 0.00 0.00 0.00 0.00 0.00 0.00 0.00 0.00 0.00 0.00 0.00 0.01 0.03 0.01 0.01 0.01 0.02 0.01 0.01 0.03
0.00 0.00 0.00 0.00 0.00 0.00 0.00 0.00 0.00 0.00 0.00 0.00 0.00 0.00 0.00 0.00 0.00 0.00 0.00 0.00 0.00 0.00 0.00 0.00 0.00 0.00 0.00 0.00 0.00 0.00 0.00 0.00 0.00 0.00 0.00 0.00 0.00 0.00 0.00 0.00 0.01 0.01 0.03
0.00 0.00 0.00 0.00 0.00 0.00 0.00 0.00 0.00 0.00 0.00 0.00 0.00 0.00 0.00 0.00 0.00 0.00 0.00 0.00 0.00 0.00 0.00 0.00 0.00 0.00 0.00 0.00 0.00 0.00 0.00 0.00 0.00 0.00 0.00 0.00 0.00 0.00 0.00 0.00 0.00 0.01 0.01
0.00 0.00 0.00 0.00 0.00 0.00 0.00 0.00 0.00 0.00 0.00 0.00 0.00 0.00 0.00 0.00 0.00 0.00 0.00 0.00 0.00 0.00 0.00 0.00 0.00 0.00 0.00 0.00 0.00 0.00 0.00 0.00 0.00 0.00 0.00 0.00 0.00 0.00 0.00 0.00 0.00 0.00 0.00
MSLP
1022.41 1022.46 1023.08 1022.80 1022.60 1022.44 1022.16 1021.96 1021.72 1021.50 1021.40 1021.29 1021.08 1020.80 1020.69 1020.44 1020.31 1020.19 1020.01 1019.87 1019.79 1019.75 1019.74 1019.71 1019.70 1019.67 1019.60 1019.56 1019.48 1019.42 1019.35 1019.23 1019.12 1019.04 1019.02 1019.00 1019.03 1019.04 1019.00 1018.93 1018.39 1018.75 1019.20
1023.06 1022.83 1023.41 1023.27 1023.06 1022.84 1022.61 1022.32 1022.07 1021.92 1021.79 1021.61 1021.54 1021.33 1021.10 1020.96 1020.77 1020.57 1020.48 1020.30 1020.19 1020.22 1020.23 1020.19 1020.16 1020.15 1020.10 1020.02 1020.00 1019.87 1019.79 1019.64 1019.45 1019.35 1019.12 1019.25 1019.39 1019.41 1019.30 1019.19 1019.15 1019.46 1019.55
1023.04 1022.91 1023.04 1023.63 1023.44 1023.20 1022.98 1022.69 1022.43 1022.30 1022.11 1022.00 1021.85 1021.73 1021.55 1021.35 1021.22 1021.13 1020.90 1020.70 1020.67 1020.63 1020.60 1020.63 1020.58 1020.51 1020.45 1020.38 1020.37 1020.35 1020.22 1019.84 1019.57 1019.47 1019.10 1018.59 1019.45 1019.85 1019.85 1019.83 1019.84 1019.85 1019.86
1022.94 1023.31 1023.78 1023.99 1023.73 1023.51 1023.32 1023.00 1022.86 1022.74 1022.52 1022.43 1022.23 1022.09 1021.90 1021.87 1021.74 1021.58 1021.49 1021.34 1021.13 1021.08 1020.97 1020.94 1020.93 1020.93 1020.83 1020.77 1020.73 1020.70 1020.52 1020.07 1019.73 1019.47 1018.62 1018.55 1019.33 1020.22 1020.17 1020.13 1020.09 1020.14 1020.15
1022.93 1023.77 1024.45 1024.44 1024.16 1023.84 1023.58 1023.31 1023.17 1023.05 1022.97 1022.89 1022.66 1022.51 1022.33 1022.17 1022.17 1022.12 1022.01 1021.86 1021.65 1021.53 1021.41 1021.38 1021.33 1021.27 1021.18 1021.07 1021.04 1020.93 1020.62 1020.16 1019.84 1019.43 1017.94 1018.53 1019.14 1020.32 1020.42 1020.46 1020.41 1020.44 1020.34
1023.55 1024.00 1024.86 1024.90 1024.60 1024.25 1024.01 1023.75 1023.55 1023.33 1023.17 1023.18 1023.03 1022.87 1022.75 1022.56 1022.45 1022.38 1022.33 1022.28 1022.12 1021.98 1021.92 1021.83 1021.66 1021.45 1021.29 1021.30 1021.29 1021.18 1020.84 1020.45 1019.95 1018.25 1018.76 1019.29 1019.66 1020.72 1020.70 1020.69 1020.68 1020.85 1020.90
1024.62 1024.48 1024.85 1024.99 1024.89 1024.70 1024.46 1024.26 1024.07 1023.82 1023.66 1023.41 1023.22 1023.14 1023.03 1022.94 1022.78 1022.68 1022.64 1022.50 1022.44 1022.42 1022.31 1022.17 1022.00 1021.75 1021.57 1021.52 1021.57 1021.48 1021.10 1020.54 1019.82 1018.41 1018.47 1018.88 1020.38 1020.99 1021.09 1021.15 1021.22 1021.29 1021.34
1025.05 1024.69 1024.55 1024.98 1025.09 1025.11 1024.89 1024.65 1024.51 1024.32 1024.16 1023.93 1023.73 1023.49 1023.32 1023.09 1022.88 1022.79 1022.74 1022.74 1022.64 1022.58 1022.48 1022.39 1022.30 1022.14 1021.97 1021.89 1021.79 1021.64 1021.35 1020.87 1019.84 1019.19 1018.99 1019.38 1021.02 1021.17 1021.26 1021.41 1021.58 1021.66 1021.69
1025.17 1025.12 1024.91 1024.96 1025.22 1025.23 1025.34 1025.15 1024.90 1024.67 1024.45 1024.18 1023.97 1023.73 1023.51 1023.36 1023.07 1022.86 1022.79 1022.70 1022.70 1022.66 1022.56 1022.44 1022.38 1022.30 1022.17 1022.05 1021.93 1021.81 1021.56 1020.93 1020.32 1019.15 1019.08 1019.54 1021.12 1021.31 1021.48 1021.64 1021.76 1021.85 1021.92
1025.78 1025.35 1025.32 1025.30 1025.18 1025.41 1025.49 1025.51 1025.14 1024.83 1024.57 1024.30 1024.06 1023.82 1023.44 1023.05 1022.70 1022.59 1022.74 1022.83 1022.83 1022.70 1022.59 1022.50 1022.35 1022.24 1022.13 1022.02 1021.87 1021.79 1021.53 1021.03 1020.25 1018.62 1018.64 1020.28 1021.18 1021.46 1021.62 1021.73 1021.94 1022.05 1022.11
1025.69 1025.82 1025.66 1025.42 1025.35 1025.14 1025.44 1025.49 1025.16 1024.79 1024.60 1024.55 1024.31 1023.77 1022.72 1021.90 1021.81 1021.73 1022.38 1022.51 1022.65 1022.67 1022.55 1022.35 1022.25 1022.13 1021.96 1021.68 1021.50 1021.44 1021.21 1020.22 1019.46 1018.66 1018.85 1020.47 1021.08 1021.43 1021.60 1021.74 1021.92 1022.07 1022.18
1026.22 1025.97 1025.96 1026.12 1025.84 1025.10 1024.86 1024.80 1024.95 1024.94 1024.83 1024.84 1024.98 1024.93 1023.95 1023.71 1023.08 1022.80 1022.40 1022.44 1022.28 1022.09 1022.01 1021.93 1021.73 1021.60 1021.63 1020.47 1020.30 1021.11 1020.39 1019.42 1019.22 1018.89 1019.34 1020.26 1020.88 1021.22 1021.41 1021.67 1021.88 1022.02 1022.15
1026.72 1026.64 1026.34 1026.49 1026.49 1025.92 1025.37 1024.96 1024.84 1024.82 1024.83 1024.88 1025.16 1025.11 1025.17 1024.53 1024.33 1023.52 1023.17 1022.71 1022.16 1021.97 1020.88 1021.31 1021.06 1020.55 1019.85 1020.24 1019.77 1019.51 1019.22 1019.38 1018.75 1018.36 1019.27 1019.87 1020.64 1021.04 1021.19 1021.42 1021.65 1021.87 1022.01
1026.96 1027.09 1027.04 1027.06 1026.98 1026.71 1025.81 1025.75 1025.53 1025.36 1025.42 1025.31 1025.43 1025.49 1024.76 1024.60 1024.77 1024.59 1024.07 1023.67 1023.36 1022.68 1021.99 1021.47 1019.92 1019.60 1020.00 1020.11 1020.15 1020.06 1019.85 1019.49 1018.55 1018.27 1019.13 1019.51 1020.12 1020.69 1020.93 1021.00 1021.22 1021.48 1021.69
1027.49 1027.68 1027.64 1027.70 1027.55 1027.13 1026.93 1026.61 1026.55 1026.05 1026.09 1026.00 1026.15 1026.07 1025.69 1024.98 1024.79 1024.16 1024.04 1023.96 1024.18 1024.00 1023.49 1022.95 1021.89 1020.94 1019.80 1019.46 1019.58 1019.53 1019.40 1019.21 1018.91 1018.82 1018.84 1019.51 1019.69 1020.08 1020.48 1020.63 1020.83 1021.09 1021.40
1028.00 1028.18 1028.14 1028.18 1028.24 1027.87 1027.50 1027.42 1026.98 1026.98 1026.56 1026.37 1026.57 1026.83 1026.47 1025.84 1025.45 1024.55 1023.99 1023.52 1024.01 1024.06 1023.52 1023.19 1022.78 1022.28 1021.18 1020.20 1019.05 1019.12 1018.88 1018.70 1018.89 1018.73 1018.44 1019.44 1019.26 1019.37 1019.70 1020.05 1020.26 1020.58 1020.96
1028.25 1028.43 1028.34 1028.11 1028.55 1028.30 1027.92 1027.56 1027.39 1027.48 1027.16 1027.00 1026.86 1027.18 1027.09 1026.64 1026.00 1025.24 1024.71 1024.64 1024.48 1023.82 1022.96 1022.55 1022.34 1022.29 1021.89 1021.38 1020.99 1020.24 1019.75 1019.41 1018.81 1018.55 1018.16 1017.62 1018.64 1019.19 1019.50 1019.58 1019.68 1019.90 1020.29
1028.68 1028.62 1028.62 1028.62 1028.64 1028.67 1028.45 1027.99 1027.82 1027.78 1027.50 1027.45 1027.47 1027.45 1027.56 1027.23 1026.73 1025.80 1025.39 1025.45 1024.79 1023.95 1023.56 1023.22 1022.65 1021.93 1021.84 1021.74 1021.20 1020.85 1020.50 1020.07 1019.63 1019.19 1018.71 1018.36 1017.96 1018.71 1019.83 1020.73 1019.51 1019.37 1019.63
1029.06 1029.02 1028.91 1028.95 1028.99 1028.88 1028.76 1028.18 1028.00 1027.97 1027.76 1027.82 1027.93 1027.93 1027.94 1027.65 1027.36 1026.59 1026.17 1026.15 1025.26 1024.66 1024.38 1024.11 1023.38 1022.79 1022.12 1021.45 1020.79 1020.15 1019.93 1019.57 1019.26 1019.04 1018.88 1018.58 1018.16 1018.15 1018.12 1019.12 1018.66 1018.57 1018.86
1029.20 1029.31 1029.14 1029.13 1029.18 1028.89 1028.45 1027.92 1027.82 1027.87 1027.95 1028.11 1028.20 1028.28 1028.21 1027.98 1027.79 1027.43 1026.71 1026.71 1026.06 1025.54 1025.21 1025.06 1024.23 1023.33 1022.36 1021.99 1021.36 1019.75 1019.01 1018.55 1018.55 1018.87 1018.62 1018.20 1017.71 1017.45 1016.95 1016.53 1017.01 1017.17 1017.56
1029.06 1029.10 1029.20 1029.20 1029.20 1028.71 1028.44 1028.35 1028.11 1028.04 1028.37 1028.24 1028.26 1028.55 1028.57 1028.44 1028.14 1027.68 1027.30 1027.03 1026.86 1026.17 1026.27 1025.74 1025.03 1023.88 1022.60 1022.32 1021.53 1020.30 1019.02 1017.92 1017.96 1018.69 1018.04 1017.98 1017.72 1017.55 1016.92 1017.21 1017.28 1017.09 1016.21
1029.02 1029.26 1029.19 1029.26 1029.28 1029.13 1028.49 1028.48 1028.68 1028.74 1028.40 1028.46 1028.56 1028.52 1028.76 1028.50 1028.43 1028.00 1027.92 1027.50 1027.33 1026.73 1026.49 1026.29 1025.86 1024.87 1023.64 1022.91 1022.46 1021.14 1019.44 1018.69 1019.25 1018.87 1019.16 1019.17 1019.60 1019.62 1017.81 1017.50 1018.05 1017.17 1016.25
1028.76 1029.26 1029.18 1029.30 1029.33 1029.51 1029.21 1028.71 1028.40 1028.09 1028.03 1028.36 1028.40 1028.50 1028.54 1028.70 1028.53 1028.47 1028.25 1028.02 1027.72 1027.17 1026.97 1026.67 1026.35 1025.80 1024.81 1023.77 1023.42 1023.41 1022.00 1021.22 1020.86 1019.34 1019.26 1019.61 1020.16 1019.56 1018.98 1017.75 1017.52 1017.49 1017.64
1028.65 1029.10 1029.14 1029.31 1029.29 1029.40 1029.65 1029.15 1028.99 1028.42 1028.35 1028.51 1028.46 1028.59 1028.46 1028.60 1028.56 1028.49 1028.38 1028.19 1027.99 1027.49 1027.44 1027.13 1026.84 1026.53 1025.74 1024.81 1024.13 1024.03 1024.04 1023.63 1022.84 1021.16 1020.25 1019.61 1020.18 1019.91 1019.01 1017.95 1018.11 1018.25 1018.31
1028.38 1028.82 1029.14 1029.22 1029.31 1029.44 1029.69 1029.63 1029.32 1029.24 1028.90 1028.58 1028.53 1028.47 1028.21 1028.17 1028.30 1028.31 1028.31 1028.23 1028.10 1027.72 1027.57 1027.44 1027.22 1026.89 1026.39 1025.76 1025.09 1024.49 1024.16 1023.56 1023.38 1022.55 1021.39 1020.95 1020.36 1019.89 1019.24 1019.12 1018.45 1017.99 1018.74
1028.44 1028.85 1029.07 1029.10 1028.92 1029.11 1029.36 1029.48 1029.44 1029.34 1029.18 1028.94 1028.70 1028.32 1028.09 1027.85 1027.86 1027.98 1028.31 1028.21 1027.99 1027.82 1027.66 1027.39 1027.26 1026.91 1026.76 1026.35 1025.81 1025.16 1024.49 1024.16 1023.50 1023.01 1022.28 1021.58 1020.88 1020.43 1019.86 1019.10 1018.78 1018.29 1018.92
Thickness
5683 5682 5678 5680 5681 5680 5682 5683 5683 5684 5683 5682 5684 5686 5687 5689 5689 5689 5690 5691 5691 5691 5690 5688 5687 5686 5685 5684 5684 5684 5685 5686 5686 5687 5686 5686 5686 5685 5684 5684 5688 5684 5682
5680 5681 5678 5678 5679 5679 5679 5680 5682 5681 5681 5682 5682 5684 5686 5686 5687 5687 5688 5689 5690 5690 5688 5687 5685 5684 5683 5683 5682 5683 5683 5684 5684 5685 5687 5686 5685 5684 5684 5685 5685 5683 5683
5681 5682 5681 5677 5678 5679 5678 5680 5680 5680 5681 5680 5682 5683 5685 5686 5687 5686 5687 5688 5688 5688 5687 5685 5685 5684 5683 5682 5682 5681 5681 5683 5685 5685 5689 5691 5685 5683 5682 5682 5682 5682 5682
5685 5682 5678 5678 5679 5679 5678 5680 5681 5680 5680 5679 5680 5682 5684 5684 5684 5685 5685 5685 5686 5686 5686 5685 5684 5683 5683 5682 5681 5680 5681 5683 5685 5687 5692 5692 5686 5681 5682 5682 5682 5681 5681
5686 5680 5676 5677 5678 5679 5679 5680 5680 5681 5680 5678 5679 5679 5680 5682 5681 5682 5683 5683 5683 5684 5684 5683 5683 5682 5682 5681 5681 5681 5682 5685 5686 5688 5698 5693 5688 5681 5681 5681 5682 5681 5681
5682 5679 5674 5675 5676 5677 5677 5678 5679 5681 5680 5679 5679 5679 5678 5679 5680 5680 5680 5680 5680 5680 5680 5681 5682 5683 5684 5682 5681 5680 5682 5684 5687 5697 5693 5689 5686 5679 5679 5680 5681 5679 5679
5675 5676 5675 5674 5675 5675 5674 5675 5676 5677 5678 5678 5679 5678 5678 5678 5678 5677 5677 5678 5678 5677 5678 5678 5679 5681 5682 5681 5680 5680 5681 5685 5689 5697 5695 5693 5683 5679 5678 5677 5677 5676 5676
5672 5675 5676 5674 5673 5672 5673 5673 5673 5674 5674 5675 5675 5677 5677 5677 5677 5677 5676 5675 5675 5675 5676 5676 5676 5678 5679 5679 5679 5679 5680 5683 5688 5692 5692 5689 5678 5678 5678 5677 5675 5674 5674
5672 5672 5674 5673 5671 5670 5669 5669 5670 5671 5672 5673 5674 5675 5676 5676 5676 5677 5675 5674 5673 5673 5673 5674 5674 5675 5675 5676 5677 5677 5679 5683 5685 5692 5692 5689 5678 5675 5674 5674 5674 5673 5672
5667 5669 5669 5670 5670 5668 5667 5666 5668 5669 5670 5671 5672 5673 5675 5678 5679 5678 5675 5673 5672 5671 5672 5672 5672 5672 5673 5674 5675 5675 5677 5681 5685 5694 5694 5683 5677 5674 5672 5671 5669 5669 5669
5668 5666 5667 5668 5668 5668 5666 5665 5666 5667 5667 5667 5668 5670 5677 5681 5681 5681 5677 5674 5672 5670 5670 5671 5672 5672 5672 5674 5675 5675 5677 5681 5687 5693 5691 5681 5675 5672 5670 5669 5668 5667 5666
5662 5664 5663 5661 5663 5666 5667 5666 5664 5663 5662 5661 5659 5660 5665 5666 5670 5670 5671 5672 5673 5673 5673 5671 5672 5672 5672 5678 5680 5675 5678 5684 5685 5687 5685 5680 5674 5670 5669 5667 5665 5665 5664
5658 5658 5659 5657 5656 5658 5661 5663 5661 5660 5658 5656 5653 5653 5653 5655 5656 5661 5662 5665 5668 5670 5675 5673 5674 5676 5679 5675 5678 5680 5682 5681 5686 5689 5684 5679 5672 5669 5667 5665 5664 5662 5662
5654 5652 5651 5650 5649 5650 5654 5653 5654 5653 5651 5650 5647 5646 5649 5650 5647 5648 5650 5652 5654 5659 5663 5666 5676 5678 5674 5673 5672 5671 5671 5675 5683 5686 5682 5679 5673 5667 5665 5664 5663 5661 5660
5647 5645 5645 5642 5641 5643 5642 5642 5641 5643 5642 5640 5637 5637 5638 5641 5640 5644 5644 5644 5642 5642 5646 5649 5656 5662 5670 5672 5671 5671 5671 5672 5674 5676 5676 5672 5671 5668 5664 5662 5661 5659 5658
5641 5638 5636 5634 5631 5632 5633 5632 5633 5631 5632 5632 5629 5625 5627 5629 5630 5634 5637 5640 5634 5634 5638 5640 5643 5646 5654 5660 5669 5668 5670 5671 5670 5672 5675 5669 5669 5669 5667 5664 5661 5659 5656
5635 5633 5631 5630 5623 5623 5623 5625 5624 5621 5621 5621 5621 5616 5615 5616 5619 5622 5624 5624 5624 5627 5633 5636 5636 5638 5641 5647 5649 5654 5657 5659 5661 5665 5669 5673 5668 5666 5663 5662 5662 5660 5656
5629 5627 5625 5621 5619 5615 5614 5616 5615 5613 5613 5612 5610 5608 5606 5605 5606 5609 5610 5609 5612 5618 5620 5622 5626 5632 5634 5635 5640 5643 5644 5647 5650 5651 5656 5659 5663 5659 5648 5643 5655 5658 5656
5624 5622 5619 5616 5612 5610 5608 5610 5609 5608 5607 5604 5601 5598 5595 5594 5593 5596 5595 5593 5598 5602 5604 5607 5613 5618 5622 5628 5634 5640 5642 5645 5647 5647 5650 5652 5656 5655 5651 5647 5654 5659 5656
5620 5616 5614 5610 5607 5605 5606 5607 5606 5604 5601 5597 5594 5591 5587 5585 5583 5582 5583 5581 5583 5585 5588 5590 5596 5604 5612 5614 5620 5633 5641 5645 5644 5642 5646 5649 5653 5657 5660 5665 5669 5665 5662
5616 5613 5609 5605 5602 5602 5602 5599 5599 5596 5592 5591 5587 5582 5578 5576 5576 5576 5574 5572 5571 5574 5573 5576 5581 5591 5601 5604 5608 5618 5630 5641 5641 5634 5639 5642 5647 5649 5658 5656 5650 5644 5666
5609 5605 5603 5599 5596 5594 5596 5594 5590 5586 5585 5582 5578 5576 5572 5570 5568 5567 5565 5564 5562 5565 5565 5566 5568 5575 5585 5591 5591 5601 5612 5621 5620 5626 5623 5624 5620 5617 5636 5641 5634 5648 5655
5607 5600 5598 5594 5590 5586 5585 5584 5584 5584 5582 5577 5574 5570 5567 5563 5562 5560 5558 5556 5556 5557 5557 5558 5559 5562 5568 5577 5579 5575 5584 5588 5591 5611 5612 5611 5608 5609 5614 5633 5635 5638 5636
5603 5598 5594 5590 5586 5581 5575 5575 5573 5575 5572 5570 5568 5563 5561 5558 5556 5554 5552 5551 5550 5551 5550 5550 5550 5551 5556 5562 5567 5567 5565 5566 5566 5579 5594 5601 5598 5598 5609 5619 5617 5619 5620
5601 5594 5588 5584 5579 5574 5569 5565 5563 5560 5561 5562 5560 5559 5559 5555 5552 5550 5548 5546 5545 5545 5544 5544 5544 5545 5547 5550 5554 5558 5560 5563 5562 5565 5570 5577 5585 5590 5596 5596 5602 5608 5606
5594 5588 5584 5579 5577 5571 5565 5560 5556 5553 5551 5550 5551 5552 5552 5551 5549 5545 5540 5539 5539 5538 5538 5538 5538 5539 5538 5541 5544 5548 5551 5551 5556 5558 5562 5565 5570 5574 5580 5586 5589 5595 5593